Location: Unspecified
(42.3650°N, 71.1030°W)
Time: 21:37:18
(UTC+00:00)

Meteor PRIRODA - Pass Details

Date: 02 March 2024
Orbit: 448 x 460 km, 97.6° (Epoch: 15 April)

Event Time Altitude Azimuth Distance (km) Brightness Sun altitude
Rises 23:19:55 0° 164° (SSE) 2,460 7.0 -8.9°
Reaches altitude 10° 23:21:57 10° 164° (SSE) 1,588 6.0 -9.2°
Maximum altitude 23:25:21 82° 77° (ENE) 464 3.3 -9.9°
Drops below altitude 10° 23:28:46 10° 350° (N) 1,593 6.3 -10.5°
Sets 23:30:48 0° 349° (N) 2,468 7.3 -10.9°
